FW6820 Weather Reports


Display with metric or nautical units.
time (UTC)temp
F
wind
direction
speed
MPH
gust
MPH
rain 1hr
in
rain 24hr
in
rain mn
in
humidity
%
barometer
mb
20260503001557 75 61 7.0 13.0 0.00 0.01 0.01 55 1019.3
20260503000109 76 26 5.0 11.0 0.00 0.01 0.01 55 1019.2
20260502234542 76 38 6.0 11.0 0.00 0.01 0.01 55 1018.9
20260502233042 76 60 6.0 16.0 0.00 0.01 0.01 55 1018.8
20260502231547 76 33 7.0 16.0 0.00 0.01 0.01 56 1018.7
20260502230038 75 65 5.0 14.0 0.00 0.01 0.01 57 1018.6
20260502224556 76 337 6.0 14.0 0.00 0.01 0.01 57 1018.8
20260502223042 75 19 8.0 16.0 0.00 0.01 0.01 57 1018.7
20260502221540 76 23 7.0 16.0 0.00 0.01 0.01 58 1018.6
20260502220047 76 16 6.0 13.0 0.00 0.01 0.01 59 1018.6
20260502214541 75 25 8.0 14.0 0.00 0.01 0.01 59 1018.8
20260502213040 76 27 10.0 15.0 0.00 0.01 0.01 59 1018.7
20260502211534 75 17 8.0 13.0 0.00 0.01 0.01 60 1018.8
20260502210042 74 22 9.0 17.0 0.00 0.01 0.01 63 1019.1
20260502204545 74 347 9.0 16.0 0.00 0.01 0.01 64 1019.3
20260502203038 74 22 7.0 14.0 0.00 0.01 0.01 64 1019.5
20260502201538 73 19 6.0 15.0 0.00 0.01 0.01 65 1019.6
20260502200037 72 343 7.0 14.0 0.00 0.01 0.01 66 1019.9
20260502194541 71 34 7.0 16.0 0.00 0.01 0.01 68 1019.8
20260502193057 71 18 7.0 16.0 0.00 0.01 0.01 68 1020.0
20260502191545 70 9 10.0 16.0 0.00 0.01 0.01 69 1020.3
20260502190040 69 9 11.0 17.0 0.00 0.01 0.01 69 1020.3
20260502184556 69 333 9.0 16.0 0.00 0.01 0.01 69 1020.3
20260502183036 68 340 9.0 19.0 0.00 0.01 0.01 70 1020.4
20260502181551 68 334 10.0 17.0 0.00 0.01 0.01 70 1020.5
20260502163044 63 355 8.0 16.0 0.00 0.01 0.01 77 1021.5
20260502161556 61 347 6.0 15.0 0.00 0.01 0.01 78 1021.4
20260502151538 61 320 8.0 14.0 0.00 0.01 0.01 77 1020.9
20260502123111 61 348 9.0 14.0 0.00 0.01 0.01 83 1018.5
20260502121538 61 350 7.0 15.0 0.00 0.01 0.01 83 1018.3
20260502114533 61 348 8.0 16.0 0.00 0.01 0.01 83 1017.9
20260502113039 61 352 8.0 13.0 0.00 0.01 0.01 83 1017.3
20260502111540 61 350 7.0 14.0 0.00 0.01 0.01 84 1017.2
20260502110048 61 10 5.0 9.0 0.00 0.01 0.01 84 1016.8
20260502104537 61 332 4.0 10.0 0.00 0.01 0.01 84 1016.6
20260502103035 61 355 6.0 13.0 0.00 0.01 0.01 84 1016.5
20260502101550 61 350 8.0 14.0 0.00 0.01 0.01 84 1016.6
20260502070042 63 5 12.0 21.0 0.00 0.00 0.00 83 1014.9
20260502064547 64 355 13.0 23.0 0.00 0.00 0.00 83 1014.6
20260502063052 64 13 17.0 24.0 0.00 0.00 0.00 82 1014.9
20260502061537 64 5 13.0 25.0 0.00 0.00 0.00 82 1014.9
20260502060044 65 5 15.0 21.0 0.00 0.00 0.00 82 1015.0
20260502054540 65 355 13.0 20.0 0.00 0.00 0.00 82 1014.6
20260502053041 65 355 10.0 23.0 0.00 0.00 0.00 82 1014.4
20260502051536 66 5 17.0 28.0 0.00 0.00 0.00 82 1014.3
20260502050043 66 30 12.0 23.0 0.00 0.00 0.00 82 1014.4
20260502044542 67 19 11.0 23.0 0.00 0.00 0.00 82 1014.4
20260502043038 67 352 13.0 19.0 0.00 0.00 0.00 81 1014.2
20260502041537 67 360 13.0 23.0 0.00 0.00 0.00 82 1014.1
20260502040036 68 346 9.0 17.0 0.00 0.00 0.00 82 1013.8
20260502034541 67 11 13.0 20.0 0.00 0.00 0.00 82 1013.4
20260502033044 68 340 11.0 23.0 0.00 0.00 0.00 82 1013.5
20260502031539 68 350 12.0 22.0 0.00 0.00 0.00 82 1013.1
20260502030036 68 360 11.0 19.0 0.00 0.00 0.00 82 1013.0
20260502024555 68 14 10.0 16.0 0.00 0.00 0.00 83 1012.5
20260502023044 68 348 7.0 14.0 0.00 0.00 0.00 84 1012.1
20260502021540 69 360 7.0 15.0 0.00 0.00 0.00 85 1011.4
20260502020040 69 59 10.0 17.0 0.00 0.00 0.00 84 1011.1
20260502014535 69 19 8.0 20.0 0.00 0.00 0.00 84 1010.7
20260502013043 69 348 9.0 19.0 0.00 0.00 0.00 84 1010.5
20260502011540 69 15 10.0 24.0 0.00 0.00 0.00 84 1010.1
20260502010049 70 352 12.0 23.0 0.00 0.00 0.00 84 1009.8
20260502004555 70 5 10.0 20.0 0.00 0.00 0.00 84 1009.6
20260502003041 70 5 12.0 20.0 0.00 0.00 0.00 84 1009.5